#timestamp,LO_Frequency,Hit,StdDev 
1584102255.5,286046985.3,P
1584102275.3,286046985.4,P
1584102295.1,286046985.9,P
1584102315.9,286046987.0,Y
1584102335.7,286047004.1,P
1584102355.6,286047004.2,N
1584102375.4,286047001.5,N
1584102395.2,286047001.4,N
1584102415.1,286047001.5,N
1584102416.0,286047001.5,N
1584102435.8,286047002.0,N
1584102455.7,286047002.0,N
1584102475.5,286047002.6,N
1584102495.3,286046999.8,N
1584102515.2,286047002.4,N
1584102535.0,286047001.5,N
1584102535.9,286047001.5,N
1584102555.7,286046999.8,N
1584102575.6,286047001.0,N
1584102595.4,286047001.1,N
1584102615.3,286046999.7,N
1584102635.1,286047002.7,N
1584102655.8,286047000.2,N
1584102675.7,286047002.8,N
1584102695.5,286047004.3,N
1584102715.4,286047002.9,N
1584102735.2,286047003.0,N
1584102755.0,286047007.6,N
1584102755.9,286047007.6,N
1584102775.8,286047003.6,N
1584102795.6,286047005.2,N
1584102815.4,286047005.7,N
1584102835.3,286047003.1,N
1584102855.1,286047003.0,N
1584102875.9,286047003.5,N
1584102895.7,286047003.7,N
1584102915.5,286047005.9,N
1584102935.4,286047003.2,N
1584102955.2,286047003.9,N
1584102975.0,286047003.2,N
1584102976.0,286047003.2,N
1584102995.8,286047004.0,N
1584103015.6,286047003.1,N
1584103035.5,286047006.0,N
1584103055.3,286047003.3,N
1584103075.1,286047005.2,N
1584103095.9,286047002.9,N
1584103115.7,286047005.6,N
1584103135.6,286047005.1,N
1584103155.4,286047005.3,N
1584103175.2,286047005.3,Y
1584103195.1,286047000.3,P
1584103196.0,286047000.3,N
1584103215.8,286047000.2,N
1584103235.7,286046999.7,N
1584103255.5,286047000.5,N
1584103275.3,286047002.3,N
1584103295.2,286047004.4,Y
1584103315.0,286047001.1,P
1584103315.9,286047001.1,P
1584103335.7,286046999.1,P
1584103355.6,286046998.8,N
1584103375.4,286047000.7,N
1584103395.3,286047000.6,N
1584103415.1,286047001.0,N
1584103416.0,286047001.0,N
1584103435.8,286047002.4,N
1584103455.7,286047002.1,N
1584103475.5,286047000.4,N
1584103495.4,286046998.7,N
1584103515.2,286046998.9,N
1584103535.0,286046998.5,N
1584103535.9,286046998.5,N
1584103555.8,286046999.2,N
1584103575.6,286046998.6,N
1584103595.4,286047000.0,N
1584103615.3,286047002.3,N
1584103635.1,286046999.9,N
1584103655.9,286047000.3,N
1584103675.7,286047000.9,N
1584103695.5,286046998.7,N
1584103715.4,286046998.6,N
1584103735.2,286046998.2,N
1584103755.0,286046998.4,N
1584103756.0,286046998.4,N
1584103775.8,286046999.3,N
1584103795.6,286046999.0,N
1584103815.5,286046999.0,N
1584103835.3,286046999.5,N
1584103855.1,286046999.2,N
1584103875.9,286046997.6,N
1584103895.7,286046995.3,Y
1584103915.6,286046996.6,P
1584103935.4,286046997.1,N
1584103955.2,286046999.6,N
1584103975.1,286046998.9,N
1584103976.0,286046998.9,N
1584103995.8,286046996.7,N
1584104015.6,286046997.9,N
1584104035.5,286046997.3,N
1584104055.3,286046997.9,N
1584104075.2,286046996.0,Y
1584104095.0,286046995.1,P
1584104095.9,286046995.1,P
1584104115.7,286046994.9,P
1584104135.6,286046993.4,Y
1584104155.4,286046998.1,P
1584104175.3,286046999.3,N
1584104195.1,286047001.0,N
1584104196.0,286047001.0,N
1584104215.8,286047002.4,N
1584104235.7,286047002.1,N
1584104255.5,286047001.6,N
1584104275.4,286047000.7,N
1584104295.2,286047000.7,N
1584104315.0,286047000.9,N
1584104315.9,286047000.9,N
1584104335.8,286046998.1,N
1584104355.6,286046998.8,N
1584104375.4,286047000.0,N
1584104395.3,286047000.8,N
